Satellite: PO-28
Catalog number: 22829
Epoch time:      08234.86449400
Element set:      17
Inclination:      098.3719 deg
RA of node:       194.4142 deg
Eccentricity:    0.0010439
Arg of perigee:   039.0835 deg
Mean anomaly:     321.1111 deg
Mean motion:   14.30195005 rev/day
Decay rate:       -5.9e-07 rev/day^2
Epoch rev:           77751
Checksum:              291

Satellite: GO-32
Catalog number: 25397
Epoch time:      08234.63666942
Element set:     677
Inclination:      098.3596 deg
RA of node:       266.5540 deg
Eccentricity:    0.0002062
Arg of perigee:   071.4346 deg
Mean anomaly:     288.7057 deg
Mean motion:   14.23147384 rev/day
Decay rate:        1.9e-07 rev/day^2
Epoch rev:           52552
Checksum:              327

Satellite: NO-44
Catalog number: 26931
Epoch time:      08233.79250402
Element set:    0959
Inclination:      067.0529 deg
RA of node:       118.2263 deg
Eccentricity:    0.0007328
Arg of perigee:   264.8479 deg
Mean anomaly:     095.1805 deg
Mean motion:   14.29530307 rev/day
Decay rate:      -1.32e-06 rev/day^2
Epoch rev:           35964
Checksum:              315

Satellite: SO-50
Catalog number: 27607
Epoch time:      08234.45915285
Element set:     679
Inclination:      064.5560 deg
RA of node:       215.4034 deg
Eccentricity:    0.0086592
Arg of perigee:   267.0035 deg
Mean anomaly:     092.1181 deg
Mean motion:   14.71374646 rev/day
Decay rate:       -6.9e-07 rev/day^2
Epoch rev:           30457
Checksum:              314

Satellite: CO-55
Catalog number: 27844
Epoch time:      08234.72817382
Element set:     378
Inclination:      098.7167 deg
RA of node:       242.0873 deg
Eccentricity:    0.0009048
Arg of perigee:   291.3512 deg
Mean anomaly:     068.6681 deg
Mean motion:   14.20592630 rev/day
Decay rate:        2.1e-07 rev/day^2
Epoch rev:           26674
Checksum:              322

Satellite: CO-57
Catalog number: 27848
Epoch time:      08234.52376143
Element set:     328
Inclination:      098.7177 deg
RA of node:       240.9706 deg
Eccentricity:    0.0009255
Arg of perigee:   296.1590 deg
Mean anomaly:     063.8635 deg
Mean motion:   14.20401158 rev/day
Decay rate:        2.9e-07 rev/day^2
Epoch rev:           26668
Checksum:              329

Satellite: AO-51
Catalog number: 28375
Epoch time:      08234.82294774
Element set:     179
Inclination:      098.0686 deg
RA of node:       255.6943 deg
Eccentricity:    0.0084026
Arg of perigee:   314.5570 deg
Mean anomaly:     044.8780 deg
Mean motion:   14.40615947 rev/day
Decay rate:       -8.0e-08 rev/day^2
Epoch rev:           21785
Checksum:              340

Satellite: CO-56
Catalog number: 28941
Epoch time:      08234.82535062
Element set:     308
Inclination:      098.1133 deg
RA of node:       354.6665 deg
Eccentricity:    0.0157589
Arg of perigee:   161.8964 deg
Mean anomaly:     198.7939 deg
Mean motion:   15.59696291 rev/day
Decay rate:     3.4367e-04 rev/day^2
Epoch rev:           14026
Checksum:              367

Satellite: CP3
Catalog number: 31128
Epoch time:      08233.83799852
Element set:    0413
Inclination:      098.0343 deg
RA of node:       294.5288 deg
Eccentricity:    0.0104019
Arg of perigee:   134.6209 deg
Mean anomaly:     226.3523 deg
Mean motion:   14.51969453 rev/day
Decay rate:       -4.6e-07 rev/day^2
Epoch rev:           07131
Checksum:              301

Satellite: CP4
Catalog number: 31132
Epoch time:      08234.89824106
Element set:     392
Inclination:      098.0367 deg
RA of node:       298.0178 deg
Eccentricity:    0.0087141
Arg of perigee:   124.1334 deg
Mean anomaly:     236.8163 deg
Mean motion:   14.55136674 rev/day
Decay rate:      -1.12e-06 rev/day^2
Epoch rev:            7150
Checksum:              288

/EX
SB KEPS @ AMSAT  $ORB08234.W
Orbital Elements  08234.WEATHER

HR AMSAT ORBITAL ELEMENTS FOR WEATHER SATELLITES
FROM WA5QGD FORT WORTH,TX August 21, 2008
Send Subscribe/unsubscribe to KEPS at 
http://www.amsat.org/mailman/listinfo/keps
BID: ORB08234.W
TO ALL RADIO AMATEURS BT

Satellite: NOAA-10
Catalog number: 16969
Epoch time:      08233.57557078
Element set:    0256
Inclination:      098.7202 deg
RA of node:       255.4103 deg
Eccentricity:    0.0012207
Arg of perigee:   358.1176 deg
Mean anomaly:     001.9952 deg
Mean motion:   14.27366787 rev/day
Decay rate:        8.5e-07 rev/day^2
Epoch rev:           14062
Checksum:              310

Satellite: NOAA-11
Catalog number: 19531
Epoch time:      08233.66175277
Element set:    0289
Inclination:      098.7970 deg
RA of node:       322.0858 deg
Eccentricity:    0.0010830
Arg of perigee:   243.1024 deg
Mean anomaly:     116.9049 deg
Mean motion:   14.14875464 rev/day
Decay rate:       1.74e-06 rev/day^2
Epoch rev:           02702
Checksum:              300

Satellite: NOAA-12
Catalog number: 21263
Epoch time:      08233.98594851
Element set:    0827
Inclination:      098.7701 deg
RA of node:       235.9384 deg
Eccentricity:    0.0011716
Arg of perigee:   301.3447 deg
Mean anomaly:     058.6593 deg
Mean motion:   14.25542955 rev/day
Decay rate:        2.2e-07 rev/day^2
Epoch rev:           89762
Checksum:              328

